| time (UTC) | temp F | wind direction | speed MPH | gust MPH | rain 1hr in | rain 24hr in | rain mn in | humidity % | barometer mb |
| 20260506022909 | 62 | 51 | 2.0 | 5.0 | 0.00 | 0.00 | 0.00 | 91 | 1014.3 |
| 20260506022409 | 62 | 89 | 2.0 | 5.0 | 0.00 | 0.00 | 0.00 | 91 | 1014.3 |
| 20260506021910 | 62 | 77 | 2.0 | 3.0 | 0.00 | 0.00 | 0.00 | 91 | 1014.2 |
| 20260506021410 | 62 | 75 | 2.0 | 3.0 | 0.00 | 0.00 | 0.00 | 91 | 1014.2 |
| 20260506020409 | 62 | 81 | 2.0 | 3.0 | 0.00 | 0.00 | 0.00 | 91 | 1014.3 |
| 20260506015910 | 62 | 74 | 2.0 | 3.0 | 0.00 | 0.00 | 0.00 | 91 | 1014.3 |
| 20260506015410 | 62 | 77 | 2.0 | 3.0 | 0.00 | 0.00 | 0.00 | 91 | 1014.3 |
| 20260506014909 | 62 | 76 | 1.0 | 3.0 | 0.00 | 0.00 | 0.00 | 91 | 1014.3 |
| 20260506014420 | 62 | 83 | 2.0 | 3.0 | 0.00 | 0.00 | 0.00 | 91 | 1014.3 |
| 20260506013910 | 62 | 62 | 2.0 | 3.0 | 0.00 | 0.00 | 0.00 | 91 | 1014.4 |
| 20260506013410 | 62 | 64 | 2.0 | 3.0 | 0.00 | 0.00 | 0.00 | 91 | 1014.4 |
| 20260506012909 | 62 | 62 | 2.0 | 3.0 | 0.00 | 0.00 | 0.00 | 91 | 1014.3 |
| 20260506012409 | 62 | 54 | 2.0 | 3.0 | 0.00 | 0.00 | 0.00 | 90 | 1014.3 |
| 20260506011409 | 62 | 86 | 2.0 | 3.0 | 0.00 | 0.00 | 0.00 | 90 | 1014.4 |
| 20260506010910 | 62 | 54 | 2.0 | 3.0 | 0.00 | 0.00 | 0.00 | 90 | 1014.5 |
| 20260506010410 | 62 | 75 | 2.0 | 3.0 | 0.00 | 0.00 | 0.00 | 90 | 1014.4 |
| 20260506004910 | 62 | 31 | 2.0 | 3.0 | 0.00 | 0.00 | 0.00 | 90 | 1014.4 |
| 20260506004411 | 62 | 39 | 1.0 | 3.0 | 0.00 | 0.00 | 0.00 | 90 | 1014.4 |
| 20260506003410 | 62 | 62 | 2.0 | 3.0 | 0.00 | 0.00 | 0.00 | 90 | 1014.5 |
| 20260506002910 | 62 | 70 | 2.0 | 3.0 | 0.00 | 0.00 | 0.00 | 90 | 1014.5 |
| 20260506002410 | 62 | 61 | 2.0 | 3.0 | 0.00 | 0.00 | 0.00 | 90 | 1014.6 |
| 20260506001909 | 62 | 77 | 2.0 | 5.0 | 0.00 | 0.00 | 0.00 | 90 | 1014.6 |
| 20260505235409 | 62 | 88 | 2.0 | 3.0 | 0.00 | 0.00 | 0.00 | 90 | 1014.8 |
| 20260505234909 | 62 | 69 | 1.0 | 3.0 | 0.00 | 0.00 | 0.00 | 90 | 1014.8 |
| 20260505234409 | 62 | 52 | 2.0 | 3.0 | 0.00 | 0.00 | 0.00 | 90 | 1014.9 |
| 20260505233909 | 62 | 70 | 2.0 | 3.0 | 0.00 | 0.00 | 0.00 | 90 | 1014.9 |
| 20260505232909 | 62 | 71 | 1.0 | 3.0 | 0.00 | 0.00 | 0.00 | 90 | 1014.9 |
| 20260505232409 | 62 | 44 | 2.0 | 3.0 | 0.00 | 0.00 | 0.00 | 90 | 1014.9 |
| 20260505231909 | 62 | 80 | 2.0 | 3.0 | 0.00 | 0.00 | 0.00 | 90 | 1014.9 |
| 20260505231409 | 62 | 90 | 2.0 | 3.0 | 0.00 | 0.00 | 0.00 | 90 | 1015.0 |
| 20260505225908 | 62 | 98 | 2.0 | 3.0 | 0.00 | 0.00 | 0.00 | 90 | 1015.1 |
| 20260505225408 | 62 | 83 | 2.0 | 3.0 | 0.00 | 0.00 | 0.00 | 90 | 1015.2 |
| 20260505224909 | 62 | 88 | 2.0 | 3.0 | 0.00 | 0.00 | 0.00 | 90 | 1015.2 |
| 20260505224410 | 62 | 62 | 2.0 | 6.0 | 0.00 | 0.00 | 0.00 | 90 | 1015.1 |
| 20260505223409 | 62 | 57 | 2.0 | 5.0 | 0.00 | 0.00 | 0.00 | 90 | 1015.2 |
| 20260505222909 | 62 | 56 | 2.0 | 3.0 | 0.00 | 0.00 | 0.00 | 90 | 1015.2 |
| 20260505222409 | 62 | 50 | 2.0 | 3.0 | 0.00 | 0.00 | 0.00 | 90 | 1015.3 |
| 20260505221909 | 62 | 78 | 2.0 | 3.0 | 0.00 | 0.00 | 0.00 | 90 | 1015.3 |
| 20260505220909 | 62 | 66 | 2.0 | 3.0 | 0.00 | 0.00 | 0.00 | 90 | 1015.5 |
| 20260505215910 | 62 | 79 | 1.0 | 3.0 | 0.00 | 0.00 | 0.00 | 90 | 1015.5 |
| 20260505215410 | 62 | 115 | 1.0 | 3.0 | 0.00 | 0.00 | 0.00 | 90 | 1015.5 |
| 20260505214909 | 62 | 94 | 1.0 | 3.0 | 0.00 | 0.00 | 0.00 | 90 | 1015.4 |
| 20260505214411 | 62 | 105 | 2.0 | 3.0 | 0.00 | 0.00 | 0.00 | 90 | 1015.5 |
| 20260505213909 | 62 | 75 | 2.0 | 3.0 | 0.00 | 0.00 | 0.00 | 90 | 1015.6 |
| 20260505213410 | 62 | 84 | 2.0 | 3.0 | 0.00 | 0.00 | 0.00 | 90 | 1015.6 |
| 20260505212910 | 62 | 79 | 1.0 | 3.0 | 0.00 | 0.00 | 0.00 | 90 | 1015.6 |
| 20260505212410 | 62 | 113 | 1.0 | 3.0 | 0.00 | 0.00 | 0.00 | 90 | 1015.7 |
| 20260505211910 | 62 | 69 | 2.0 | 3.0 | 0.00 | 0.00 | 0.00 | 90 | 1015.8 |
| 20260505211410 | 62 | 66 | 2.0 | 3.0 | 0.00 | 0.00 | 0.00 | 90 | 1015.7 |
| 20260505210910 | 62 | 57 | 2.0 | 3.0 | 0.00 | 0.00 | 0.00 | 89 | 1015.8 |
| 20260505210409 | 62 | 80 | 1.0 | 3.0 | 0.00 | 0.00 | 0.00 | 89 | 1015.7 |
| 20260505205910 | 62 | 91 | 2.0 | 3.0 | 0.00 | 0.00 | 0.00 | 89 | 1015.8 |
| 20260505205410 | 62 | 90 | 2.0 | 3.0 | 0.00 | 0.00 | 0.00 | 89 | 1015.9 |
| 20260505204910 | 62 | 82 | 2.0 | 3.0 | 0.00 | 0.00 | 0.00 | 89 | 1015.9 |
| 20260505203909 | 62 | 91 | 2.0 | 3.0 | 0.00 | 0.00 | 0.00 | 89 | 1016.0 |
| 20260505203410 | 62 | 91 | 2.0 | 3.0 | 0.00 | 0.00 | 0.00 | 88 | 1016.0 |
| 20260505202909 | 62 | 78 | 2.0 | 3.0 | 0.00 | 0.00 | 0.00 | 88 | 1016.0 |
| 20260505202410 | 62 | 92 | 2.0 | 3.0 | 0.00 | 0.00 | 0.00 | 88 | 1015.9 |
| 20260505201909 | 62 | 117 | 2.0 | 3.0 | 0.00 | 0.00 | 0.00 | 88 | 1016.0 |
| 20260505201411 | 62 | 82 | 2.0 | 3.0 | 0.00 | 0.00 | 0.00 | 88 | 1016.1 |
| 20260505200909 | 62 | 87 | 1.0 | 2.0 | 0.00 | 0.00 | 0.00 | 88 | 1016.1 |
| 20260505200409 | 62 | 91 | 2.0 | 5.0 | 0.00 | 0.00 | 0.00 | 88 | 1016.1 |
| 20260505195408 | 62 | 88 | 2.0 | 3.0 | 0.00 | 0.00 | 0.00 | 88 | 1016.0 |
| 20260505194909 | 62 | 123 | 1.0 | 3.0 | 0.00 | 0.00 | 0.00 | 88 | 1015.9 |
| 20260505193909 | 62 | 98 | 2.0 | 3.0 | 0.00 | 0.00 | 0.00 | 88 | 1015.9 |
| 20260505193409 | 62 | 82 | 1.0 | 3.0 | 0.00 | 0.00 | 0.00 | 88 | 1016.0 |
| 20260505192909 | 62 | 72 | 2.0 | 3.0 | 0.00 | 0.00 | 0.00 | 88 | 1016.0 |
| 20260505191909 | 63 | 76 | 2.0 | 3.0 | 0.00 | 0.00 | 0.00 | 87 | 1016.0 |
| 20260505191410 | 63 | 89 | 2.0 | 3.0 | 0.00 | 0.00 | 0.00 | 87 | 1016.0 |
| 20260505190909 | 63 | 111 | 2.0 | 3.0 | 0.00 | 0.00 | 0.00 | 87 | 1015.9 |
| 20260505185910 | 63 | 110 | 1.0 | 3.0 | 0.00 | 0.00 | 0.00 | 87 | 1015.8 |
| 20260505185409 | 63 | 110 | 1.0 | 3.0 | 0.00 | 0.00 | 0.00 | 87 | 1015.7 |
| 20260505184909 | 63 | 77 | 2.0 | 3.0 | 0.00 | 0.00 | 0.00 | 87 | 1015.7 |
| 20260505184415 | 63 | 73 | 2.0 | 3.0 | 0.00 | 0.00 | 0.00 | 87 | 1015.7 |
| 20260505183909 | 63 | 74 | 2.0 | 3.0 | 0.00 | 0.00 | 0.00 | 86 | 1015.7 |
| 20260505182408 | 64 | 88 | 2.0 | 3.0 | 0.00 | 0.00 | 0.00 | 86 | 1015.6 |
| 20260505181409 | 64 | 111 | 1.0 | 3.0 | 0.00 | 0.00 | 0.00 | 86 | 1015.6 |
| 20260505180909 | 64 | 115 | 2.0 | 3.0 | 0.00 | 0.00 | 0.00 | 86 | 1015.7 |
| 20260505180409 | 64 | 110 | 1.0 | 3.0 | 0.00 | 0.00 | 0.00 | 86 | 1015.7 |
| 20260505175408 | 64 | 85 | 1.0 | 3.0 | 0.00 | 0.00 | 0.00 | 85 | 1015.7 |
| 20260505174909 | 64 | 115 | 1.0 | 3.0 | 0.00 | 0.00 | 0.00 | 85 | 1015.7 |
| 20260505173909 | 64 | 108 | 1.0 | 3.0 | 0.00 | 0.00 | 0.00 | 85 | 1015.7 |
| 20260505173409 | 64 | 118 | 1.0 | 3.0 | 0.00 | 0.00 | 0.00 | 85 | 1015.7 |
| 20260505172410 | 64 | 137 | 1.0 | 3.0 | 0.00 | 0.00 | 0.00 | 84 | 1015.6 |
| 20260505171909 | 64 | 101 | 2.0 | 3.0 | 0.00 | 0.00 | 0.00 | 84 | 1015.7 |
| 20260505170909 | 65 | 89 | 1.0 | 3.0 | 0.00 | 0.00 | 0.00 | 84 | 1015.6 |
| 20260505165909 | 65 | 107 | 2.0 | 3.0 | 0.00 | 0.00 | 0.00 | 83 | 1015.6 |
| 20260505165408 | 65 | 152 | 2.0 | 3.0 | 0.00 | 0.00 | 0.00 | 83 | 1015.5 |
| 20260505164909 | 65 | 135 | 1.0 | 3.0 | 0.00 | 0.00 | 0.00 | 83 | 1015.6 |
| 20260505164417 | 65 | 132 | 1.0 | 3.0 | 0.00 | 0.00 | 0.00 | 83 | 1015.7 |
| 20260505163909 | 65 | 127 | 2.0 | 3.0 | 0.00 | 0.00 | 0.00 | 82 | 1015.8 |
| 20260505163409 | 65 | 107 | 2.0 | 3.0 | 0.00 | 0.00 | 0.00 | 82 | 1015.8 |
| 20260505162910 | 65 | 145 | 1.0 | 3.0 | 0.00 | 0.00 | 0.00 | 82 | 1015.8 |
| 20260505162409 | 65 | 125 | 2.0 | 3.0 | 0.00 | 0.00 | 0.00 | 82 | 1015.9 |
| 20260505161910 | 65 | 121 | 2.0 | 3.0 | 0.00 | 0.00 | 0.00 | 81 | 1015.9 |
| 20260505161409 | 65 | 128 | 2.0 | 3.0 | 0.00 | 0.00 | 0.00 | 81 | 1015.9 |
| 20260505160909 | 65 | 110 | 2.0 | 3.0 | 0.00 | 0.00 | 0.00 | 80 | 1015.9 |
| 20260505160409 | 65 | 126 | 2.0 | 3.0 | 0.00 | 0.00 | 0.00 | 80 | 1016.1 |
| 20260505151909 | 66 | 133 | 2.0 | 3.0 | 0.00 | 0.00 | 0.00 | 78 | 1016.1 |
| 20260505150909 | 67 | 137 | 1.0 | 3.0 | 0.00 | 0.00 | 0.00 | 77 | 1016.1 |
| 20260505140409 | 68 | 149 | 1.0 | 3.0 | 0.00 | 0.00 | 0.00 | 71 | 1016.4 |
| 20260505124910 | 66 | 93 | 2.0 | 5.0 | 0.00 | 0.00 | 0.00 | 77 | 1016.7 |
| 20260505124409 | 66 | 136 | 2.0 | 3.0 | 0.00 | 0.00 | 0.00 | 76 | 1016.7 |
| 20260505123909 | 67 | 117 | 2.0 | 3.0 | 0.00 | 0.00 | 0.00 | 76 | 1016.9 |
| 20260505123409 | 67 | 125 | 2.0 | 3.0 | 0.00 | 0.00 | 0.00 | 74 | 1017.0 |
| 20260505122909 | 67 | 247 | 1.0 | 3.0 | 0.00 | 0.00 | 0.00 | 73 | 1017.0 |
| 20260505122410 | 67 | 167 | 1.0 | 3.0 | 0.00 | 0.00 | 0.00 | 74 | 1017.0 |
| 20260505120909 | 67 | 141 | 2.0 | 3.0 | 0.00 | 0.00 | 0.00 | 74 | 1017.0 |
| 20260505115909 | 68 | 216 | 1.0 | 2.0 | 0.00 | 0.00 | 0.00 | 74 | 1017.2 |
| 20260505115409 | 67 | 134 | 2.0 | 3.0 | 0.00 | 0.00 | 0.00 | 74 | 1017.2 |
| 20260505114908 | 67 | 134 | 2.0 | 5.0 | 0.00 | 0.00 | 0.00 | 74 | 1017.1 |
| 20260505114409 | 67 | 146 | 3.0 | 3.0 | 0.00 | 0.00 | 0.00 | 73 | 1017.0 |
| 20260505113909 | 68 | 127 | 2.0 | 3.0 | 0.00 | 0.00 | 0.00 | 75 | 1016.9 |
| 20260505113409 | 68 | 112 | 2.0 | 3.0 | 0.00 | 0.00 | 0.00 | 75 | 1017.0 |
| 20260505112908 | 68 | 111 | 2.0 | 3.0 | 0.00 | 0.00 | 0.00 | 77 | 1017.0 |
| 20260505112408 | 68 | 108 | 2.0 | 3.0 | 0.00 | 0.00 | 0.00 | 76 | 1017.0 |
| 20260505111909 | 68 | 146 | 3.0 | 6.0 | 0.00 | 0.00 | 0.00 | 73 | 1016.9 |
| 20260505111409 | 69 | 140 | 1.0 | 3.0 | 0.00 | 0.00 | 0.00 | 74 | 1016.8 |
| 20260505110409 | 69 | 149 | 2.0 | 3.0 | 0.00 | 0.00 | 0.00 | 74 | 1016.9 |
| 20260505101408 | 69 | 123 | 1.0 | 3.0 | 0.00 | 0.00 | 0.00 | 71 | 1016.8 |
| 20260505095908 | 68 | 126 | 2.0 | 3.0 | 0.00 | 0.00 | 0.00 | 71 | 1017.0 |
| 20260505095410 | 68 | 131 | 2.0 | 6.0 | 0.00 | 0.00 | 0.00 | 70 | 1017.1 |
| 20260505094909 | 69 | 136 | 2.0 | 3.0 | 0.00 | 0.00 | 0.00 | 68 | 1017.1 |
| 20260505094411 | 69 | 118 | 2.0 | 3.0 | 0.00 | 0.00 | 0.00 | 69 | 1017.2 |
| 20260505093409 | 69 | 139 | 2.0 | 3.0 | 0.00 | 0.00 | 0.00 | 67 | 1017.1 |
| 20260505092909 | 69 | 114 | 2.0 | 3.0 | 0.00 | 0.00 | 0.00 | 67 | 1017.0 |
| 20260505092408 | 69 | 116 | 2.0 | 3.0 | 0.00 | 0.00 | 0.00 | 67 | 1017.0 |
| 20260505091909 | 69 | 123 | 2.0 | 3.0 | 0.00 | 0.00 | 0.00 | 67 | 1017.0 |
| 20260505090410 | 69 | 148 | 2.0 | 3.0 | 0.00 | 0.00 | 0.00 | 65 | 1016.9 |
| 20260505085908 | 69 | 145 | 3.0 | 5.0 | 0.00 | 0.00 | 0.00 | 64 | 1017.0 |
| 20260505085409 | 69 | 138 | 2.0 | 6.0 | 0.00 | 0.00 | 0.00 | 63 | 1017.1 |
| 20260505084909 | 69 | 150 | 3.0 | 6.0 | 0.00 | 0.00 | 0.00 | 61 | 1017.1 |
| 20260505084414 | 69 | 132 | 3.0 | 7.0 | 0.00 | 0.00 | 0.00 | 63 | 1017.1 |
| 20260505082908 | 68 | 148 | 2.0 | 6.0 | 0.00 | 0.00 | 0.00 | 65 | 1017.2 |
| 20260505082409 | 68 | 113 | 2.0 | 3.0 | 0.00 | 0.00 | 0.00 | 67 | 1017.2 |
| 20260505081909 | 68 | 131 | 2.0 | 3.0 | 0.00 | 0.00 | 0.00 | 66 | 1017.1 |
| 20260505081409 | 68 | 130 | 2.0 | 6.0 | 0.00 | 0.00 | 0.00 | 70 | 1017.2 |
| 20260505080909 | 68 | 122 | 2.0 | 3.0 | 0.00 | 0.00 | 0.00 | 71 | 1017.2 |
| 20260505075408 | 67 | 133 | 2.0 | 3.0 | 0.00 | 0.00 | 0.00 | 74 | 1017.4 |
| 20260505074908 | 67 | 110 | 2.0 | 3.0 | 0.00 | 0.00 | 0.00 | 74 | 1017.4 |
| 20260505074413 | 67 | 178 | 1.0 | 3.0 | 0.00 | 0.00 | 0.00 | 75 | 1017.3 |
| 20260505073408 | 66 | 132 | 2.0 | 3.0 | 0.00 | 0.00 | 0.00 | 75 | 1017.4 |
| 20260505072909 | 66 | 125 | 2.0 | 3.0 | 0.00 | 0.00 | 0.00 | 76 | 1017.4 |
| 20260505071908 | 66 | 119 | 2.0 | 3.0 | 0.00 | 0.00 | 0.00 | 77 | 1017.5 |
| 20260505071409 | 66 | 121 | 3.0 | 5.0 | 0.00 | 0.00 | 0.00 | 76 | 1017.6 |
| 20260505070913 | 66 | 155 | 2.0 | 5.0 | 0.00 | 0.00 | 0.00 | 78 | 1017.5 |
| 20260505070408 | 66 | 147 | 2.0 | 3.0 | 0.00 | 0.00 | 0.00 | 78 | 1017.6 |
| 20260505065907 | 65 | 129 | 1.0 | 3.0 | 0.00 | 0.00 | 0.00 | 79 | 1017.7 |
| 20260505065408 | 66 | 99 | 1.0 | 3.0 | 0.00 | 0.00 | 0.00 | 79 | 1017.8 |
| 20260505064908 | 65 | 97 | 2.0 | 5.0 | 0.00 | 0.00 | 0.00 | 79 | 1017.9 |
| 20260505064411 | 65 | 96 | 2.0 | 3.0 | 0.00 | 0.00 | 0.00 | 80 | 1017.9 |
| 20260505063908 | 64 | 74 | 1.0 | 3.0 | 0.00 | 0.00 | 0.00 | 81 | 1017.7 |
| 20260505063409 | 64 | 128 | 1.0 | 2.0 | 0.00 | 0.00 | 0.00 | 81 | 1017.7 |
| 20260505062908 | 63 | 113 | 1.0 | 3.0 | 0.00 | 0.00 | 0.00 | 81 | 1017.6 |
| 20260505062408 | 63 | 82 | 2.0 | 3.0 | 0.00 | 0.00 | 0.00 | 81 | 1017.5 |
| 20260505061908 | 62 | 64 | 2.0 | 5.0 | 0.00 | 0.00 | 0.00 | 82 | 1017.3 |
| 20260505061408 | 62 | 65 | 2.0 | 3.0 | 0.00 | 0.00 | 0.00 | 81 | 1017.3 |
| 20260505060908 | 62 | 88 | 2.0 | 5.0 | 0.00 | 0.00 | 0.00 | 81 | 1017.1 |
| 20260505060408 | 62 | 80 | 2.0 | 3.0 | 0.00 | 0.00 | 0.00 | 81 | 1017.1 |
| 20260505054910 | 62 | 339 | 2.0 | 3.0 | 0.00 | 0.00 | 0.00 | 79 | 1017.3 |
| 20260505053908 | 61 | 64 | 2.0 | 3.0 | 0.00 | 0.00 | 0.00 | 79 | 1017.2 |
| 20260505053409 | 60 | 48 | 2.0 | 3.0 | 0.00 | 0.00 | 0.00 | 77 | 1017.2 |
| 20260505052909 | 60 | 56 | 2.0 | 3.0 | 0.00 | 0.00 | 0.00 | 75 | 1017.2 |
| 20260505052409 | 61 | 66 | 2.0 | 3.0 | 0.00 | 0.00 | 0.00 | 74 | 1017.2 |
| 20260505051908 | 61 | 73 | 2.0 | 6.0 | 0.00 | 0.00 | 0.00 | 74 | 1017.2 |
| 20260505051408 | 61 | 68 | 2.0 | 3.0 | 0.00 | 0.00 | 0.00 | 73 | 1017.2 |
| 20260505050909 | 61 | 59 | 2.0 | 5.0 | 0.00 | 0.00 | 0.00 | 73 | 1017.1 |
| 20260505050408 | 60 | 50 | 1.0 | 3.0 | 0.00 | 0.00 | 0.00 | 74 | 1017.1 |
| 20260505041407 | 59 | 56 | 2.0 | 3.0 | 0.00 | 0.00 | 0.00 | 81 | 1017.0 |
| 20260505040410 | 59 | 33 | 1.0 | 3.0 | 0.00 | 0.00 | 0.00 | 81 | 1016.9 |
| 20260505035909 | 59 | 45 | 1.0 | 3.0 | 0.00 | 0.00 | 0.00 | 80 | 1016.9 |
| 20260505034908 | 59 | 62 | 1.0 | 3.0 | 0.00 | 0.00 | 0.00 | 79 | 1016.9 |
| 20260505034408 | 59 | 38 | 1.0 | 3.0 | 0.00 | 0.00 | 0.00 | 79 | 1016.9 |
| 20260505033908 | 59 | 36 | 1.0 | 3.0 | 0.00 | 0.00 | 0.00 | 79 | 1017.0 |
| 20260505033408 | 60 | 27 | 1.0 | 2.0 | 0.00 | 0.00 | 0.00 | 78 | 1017.0 |
| 20260505032408 | 60 | 73 | 0.0 | 1.0 | 0.00 | 0.00 | 0.00 | 78 | 1017.1 |
| 20260505031908 | 60 | 73 | 0.0 | 1.0 | 0.00 | 0.00 | 0.00 | 78 | 1017.0 |
| 20260505030908 | 60 | 71 | 0.0 | 1.0 | 0.00 | 0.00 | 0.00 | 78 | 1017.1 |
| 20260505025908 | 60 | 80 | 1.0 | 3.0 | 0.00 | 0.00 | 0.00 | 79 | 1017.1 |
| 20260505025408 | 60 | 288 | 1.0 | 2.0 | 0.00 | 0.00 | 0.00 | 79 | 1017.2 |
| 20260505024908 | 59 | 285 | 1.0 | 3.0 | 0.00 | 0.00 | 0.00 | 79 | 1017.2 |
| 20260505024409 | 59 | 277 | 2.0 | 3.0 | 0.00 | 0.00 | 0.00 | 80 | 1017.2 |
| 20260505023907 | 59 | 313 | 2.0 | 3.0 | 0.00 | 0.00 | 0.00 | 81 | 1017.2 |
| 20260505023409 | 58 | 348 | 1.0 | 2.0 | 0.00 | 0.00 | 0.00 | 82 | 1017.2 |